AirNav   Free Bose QuietComfort 20
 
 1091 users online  

1M9 Lake Barkley State Park Airport
Cadiz, Kentucky, USA

GOING TO CADIZ?


FAA INFORMATION EFFECTIVE 05 DECEMBER 2019

Location

FAA Identifier: 1M9
Lat/Long: 36-49-04.0850N 087-54-27.0600W
36-49.068083N 087-54.451000W
36.8178014,-87.9075167
(estimated)
Elevation: 570.9 ft. / 174.0 m (surveyed)
Variation: 00E (1985)
From city: 4 miles SW of CADIZ, KY
Time zone: UTC -6 (UTC -5 during Daylight Saving Time)
Zip code: 42211

Airport Operations

Airport use: Open to the public
Activation date: 08/1980
Control tower: no
ARTCC: MEMPHIS CENTER
FSS: LOUISVILLE FLIGHT SERVICE STATION
NOTAMs facility: LOU (NOTAM-D service available)
Attendance: UNATNDD
Wind indicator: lighted
Segmented circle: yes
Lights: ACTVT REIL RY 2.20; PAPI RY 2/22; MIRL RY 2/20 - CTAF.
Beacon: white-green (lighted land airport)
Operates sunset to sunrise.

Airport Communications

CTAF/UNICOM: 123.0

Nearby radio navigation aids

VOR radial/distance  VOR name  Freq  Var
CKVr297/26.5CLARKSVILLE VOR/DME110.6001W

Airport Services

Parking: tiedowns
Airframe service: NONE
Powerplant service: NONE
Bottled oxygen: NONE
Bulk oxygen: NONE

Runway Information

Runway 2/20

Dimensions: 4800 x 100 ft. / 1463 x 30 m
Surface: asphalt, in good condition
Weight bearing capacity: 
Single wheel: 30.0
Runway edge lights: medium intensity
Gradient: N
RUNWAY 2  RUNWAY 20
Latitude: 36-48.697500N36-49.438667N
Longitude: 087-54.622333W087-54.279667W
Elevation: 549.0 ft.570.9 ft.
Traffic pattern: leftleft
Declared distances: TORA:4800 TODA:4800 ASDA:4700 LDA:4600TORA:4800 TODA:4800 ASDA:4700 LDA:4600
Markings: nonprecision, in fair conditionnonprecision, in fair condition
Visual slope indicator: 2-light PAPI on left (3.00 degrees glide path)2-light PAPI on left (3.00 degrees glide path)
Runway end identifier lights: yesyes
Obstructions: 14 ft. trees, 209 ft. from runway, 23 ft. right of centerline, 1:1 slope to clear
TREES 0' FROM RWY END, 150' LEFT
33 ft. trees, 250 ft. from runway, 145 ft. right of centerline, 1:1 slope to clear
TREES 0' FROM RWY END, 155' RIGHT

Airport Ownership and Management from official FAA records

Ownership: Publicly-owned
Owner: KY DEPT OF PARKS
2 HUDSON HOLLOW UNIT 1
FRANKFORT, KY 40601
Phone (502) 892-3367
Manager: DAVID MILLER
3500 STATE PARK ROAD HWY 68
CADIZ, KY 42211
Phone 270-924-1131

Airport Operational Statistics

Aircraft operations: avg 40/day *
51% military
37% transient general aviation
10% local general aviation
1% air taxi
* for 12-month period ending 10 October 2016

Additional Remarks

TRANSPORTATION TO PARK LODGE AVAIL 270-924-1131
DEER & BIRDS ON & INVOF ARPT.
FOR CD CTC CAMPBELL APCH AT 270-798-6441.

Instrument Procedures

There are no published instrument procedures at 1M9.

Some nearby airports with instrument procedures:

2M0 - Princeton-Caldwell County Airport (18 nm N)
KHOP - Campbell Army Airfield (Fort Campbell) (22 nm SE)
KHVC - Hopkinsville-Christian County Airport (22 nm E)
KCEY - Kyle-Oakley Field Airport (24 nm W)
KEOD - Sabre Army Airfield (Fort Campbell) (25 nm SE)
 
Loc | Ops | Rwys | IFR | FBO | Links
Com | Nav | Svcs | Stats | Notes
Area around 1M9 (Lake Barkley State Park Airport)
 
Road maps at: MapQuest Bing Google
 
Aerial photo
WARNING: Photo may not be current or correct
Aerial photo of 1M9 (Lake Barkley State Park Airport)
Photo taken 03-Mar-2018
looking northeast.

Do you have a better or more recent aerial photo of Lake Barkley State Park Airport that you would like to share? If so, please send us your photo.

 
Sectional chart

 
Airport distance calculator
Flying to Lake Barkley State Park Airport? Find the distance to fly.

From to 1M9

Sunrise and sunset
Times for 11-Dec-2019
 Local
(UTC-6)
 Zulu
(UTC)
Morning civil twilight06:2612:26
Sunrise06:5512:55
Sunset16:3522:35
Evening civil twilight17:0323:03

Current date and time
Zulu (UTC)  11-Dec-2019 22:58:57
Local (UTC-6)  11-Dec-2019 16:58:57
 
METAR
KHOP 
22nm SE 
112156Z AUTO 00000KT 10SM CLR 08/M08 A3049 RMK AO2 SLP332 T00751077
KCEY 
24nm W 
112255Z AUTO 00000KT 10SM CLR 04/M05 A3049 RMK AO1
KEOD 
25nm SE 
112158Z AUTO 00000KT 9SM CLR 08/M09 A3049 RMK AO2 SLP333 T00771086
KCKV 
27nm SE 
112252Z AUTO 00000KT 10SM CLR 06/M07 A3049 RMK AO2 SLP330 T00611067
K5M9 
33nm N 
112235Z AUTO 00000KT 10SM CLR 05/M05 A3048 RMK AO2 T00501053
KM25 
33nm W 
112255Z AUTO 19003KT 10SM CLR 05/M02 A3050 RMK AO2
KPHT 
37nm SW 
112235Z AUTO 00000KT 10SM CLR 06/M04 A3048 RMK A01
K2I0 
40nm NE 
112235Z AUTO 21004KT 10SM CLR 06/M08 A3049 RMK AO2 T00601085
TAF
KHOP 
22nm SE 
111600Z 1116/1222 23006KT 9999 SKC QNH3051INS BECMG 1122/1123 18006KT 9999 SKC QNH3048INS BECMG 1211/1212 14006KT 9999 SKC QNH3032INS TX07/1121Z TNM04/1211Z
KCKV 
27nm SE 
111723Z 1118/1218 20007KT P6SM SKC FM120200 16002KT P6SM SKC
NOTAMs
Click for the latest NOTAMs
NOTAMs are issued by the DoD/FAA and will open in a separate window not controlled by AirNav.

 

 
 

Would you like to see your business listed on this page?

 If your business provides an interesting product or service to pilots, flight crews, aircraft, or users of the Lake Barkley State Park Airport, you should consider listing it here.  To start the listing process, click on the button below
 
Add a business
 

Other Pages about Lake Barkley State Park Airport

Update a link
 
Copyright © AirNav, LLC. All rights reserved. Privacy Policy  Contact